This is the latest recevied weather packets stored in our database for station/object WP3XM. If no packets are shown the sender has not sent any weather packets the latest 1 day(s).
| Time | Temp. | Humidity | Pressure | Rain* | Wind** | Luminosity | Snow |
|---|---|---|---|---|---|---|---|
| 1778037469 | 26.11° C | 84% | 1019.3 hPa | 0 mm | 2.24 m/s, 82° | 0 W/m² | - |
| 1778037166 | 26.11° C | 85% | 1019.4 hPa | 0 mm | 1.34 m/s, 66° | 0 W/m² | - |
| 1778036865 | 26.11° C | 85% | 1019.5 hPa | 0 mm | 2.24 m/s, 61° | 0 W/m² | - |
| 1778036562 | 26.11° C | 84% | 1019.5 hPa | 0 mm | 2.24 m/s, 90° | 0 W/m² | - |
| 1778036259 | 26.11° C | 84% | 1019.6 hPa | 0 mm | 0.45 m/s, 93° | 0 W/m² | - |
| 1778035955 | 26.67° C | 84% | 1019.5 hPa | 0 mm | 0.89 m/s, 97° | 0 W/m² | - |
| 1778035652 | 26.67° C | 84% | 1019.5 hPa | 0 mm | 0.45 m/s, 198° | 0 W/m² | - |
| 1778035349 | 26.67° C | 84% | 1019.5 hPa | 0 mm | 0 m/s | 0 W/m² | - |
| 1778035045 | 26.67° C | 83% | 1019.6 hPa | 0 mm | 0.89 m/s, 114° | 0 W/m² | - |
| 1778034743 | 26.11° C | 84% | 1019.5 hPa | 0 mm | 0.89 m/s, 108° | 0 W/m² | - |
| 1778034439 | 26.11° C | 84% | 1019.5 hPa | 0 mm | 1.34 m/s, 90° | 0 W/m² | - |
| 1778034137 | 26.11° C | 84% | 1019.4 hPa | 0 mm | 0.89 m/s, 94° | 0 W/m² | - |
| 1778033835 | 26.11° C | 84% | 1019.5 hPa | 0 mm | 0.89 m/s, 166° | 0 W/m² | - |
| 1778033532 | 26.11° C | 84% | 1019.3 hPa | 0 mm | 0.89 m/s, 138° | 0 W/m² | - |
| 1778033228 | 26.11° C | 83% | 1019.2 hPa | 0 mm | 0.89 m/s, 161° | 0 W/m² | - |
| 1778032926 | 26.67° C | 83% | 1019.3 hPa | 0 mm | 1.34 m/s, 119° | 0 W/m² | - |
| 1778032623 | 26.67° C | 83% | 1019.5 hPa | 0 mm | 0 m/s | 0 W/m² | - |
| 1778032321 | 26.67° C | 83% | 1019.2 hPa | 0 mm | 0.89 m/s, 155° | 0 W/m² | - |
| 1778032018 | 26.67° C | 82% | 1019.4 hPa | 0 mm | 1.34 m/s, 197° | 0 W/m² | - |
| 1778031714 | 26.67° C | 82% | 1019.3 hPa | 0 mm | 0.45 m/s, 139° | 0 W/m² | - |
| 1778031412 | 26.67° C | 82% | 1019.3 hPa | 0 mm | 0.45 m/s, 134° | 0 W/m² | - |
| 1778031109 | 26.67° C | 82% | 1019.3 hPa | 0 mm | 0.45 m/s, 104° | 0 W/m² | - |
| 1778030805 | 26.67° C | 82% | 1019.3 hPa | 0 mm | 0.45 m/s, 180° | 0 W/m² | - |
| 1778030502 | 26.67° C | 81% | 1019.3 hPa | 0 mm | 0.45 m/s, 182° | 0 W/m² | - |
| 1778030199 | 26.67° C | 81% | 1019.3 hPa | 0 mm | 0.45 m/s, 176° | 0 W/m² | - |
* Rain latest hour (hover to see other rain measurements)
** Current wind speed in m/s (hover to see current wind gust speed)